{"data":{"norad_id":53566,"epoch":"2026-09-20T23:13:17.117472Z","epoch_age_seconds":38067,"freshness":"FRESH","line1":"1 53566U 22101AR  26263.96755923  .00001103  00000+0  43777-4 0  9992","line2":"2 53566  53.1581 241.5215 0001228  91.2689 268.8454 15.34393171226833","mean_motion":15.34393171,"eccentricity":0.0001228,"inclination_deg":53.1581,"raan_deg":241.5215,"arg_perigee_deg":91.2689,"mean_anomaly_deg":268.8454,"bstar":4.3777e-5,"rev_number":22683,"period_min":93.848175761987,"perigee_km":461.88347983553,"apogee_km":463.56359518354,"semimajor_km":6840.8605375095,"source":"CELESTRAK","updated_at":"2026-09-21T09:00:32.929384Z"}}